Location: Carbonia
(39.1670°N, 8.5170°E)
Time: 23:36:59
(UTC+01:00)

ISS - Visible Passes

Search period start: 18 January 2019 00:00
Search period end: 28 January 2019 00:00
Orbit: 404 x 410 km, 51.6° (Epoch: 18 January)

Date Brightness Start Highest point End Pass type
(mag) Time Alt. Az. Time Alt. Az. Time Alt. Az.
20 Jan -1.7 19:33:26 10° SSW 19:34:50 22° SSW 19:34:50 22° SSW visible
21 Jan -2.4 18:42:41 10° S 18:45:22 23° SE 18:46:01 22° ESE visible
21 Jan -0.2 20:18:41 10° W 20:18:46 10° W 20:18:46 10° W visible
22 Jan -3.2 19:27:03 10° WSW 19:29:52 55° W 19:29:52 55° W visible
23 Jan -3.8 18:35:42 10° SW 18:38:57 64° SE 18:40:53 22° ENE visible
23 Jan -0.4 20:13:15 10° WNW 20:13:36 12° WNW 20:13:36 12° WNW visible
24 Jan -2.3 19:21:14 10° W 19:24:10 29° NNW 19:24:32 28° NNW visible
25 Jan -3.1 18:29:27 10° WSW 18:32:39 48° NNW 18:35:23 13° NE visible
26 Jan -1.6 19:15:51 10° WNW 19:18:07 17° NNW 19:18:52 16° N visible
27 Jan -2.0 18:23:43 10° W 18:26:28 24° NNW 18:29:14 10° NNE visible
